ARIANE 1 DEB

Satellite information

Favourite Embed

Satellite Type and Status

DEBRISIN ORBIT

Key statistics

Satellite ARIANE 1 DEB at a glance.

Uptime

14540

Days in orbit

Revolutions

≈ 14.1

Per day

Orbit

SSO

Sun Synchronous Orbit

Inclination

98.5

Latest

Satellite identification and parameters

Extended collection of information and parameters for ARIANE 1 DEB.

Object identification

Identified? True

Debris? True

Object name: ARIANE 1 DEB

International designator: 1986-019HX

Object number (NORAD): 17543

Object ID (CCSDS): 17543

Country: FRANCE (FR)

Current information (Y/N): Y

RCS size: SMALL

Orbital parameters

Period: 101.874 minutes

Inclination: 98.5241 deg

SMA: 7225.537 km

Apoapsis: 931.484 km

Periapsis: 763.32 km

RAAN: 347.6187 deg

Eccentricy: 0.01163677

Argument of periapsis: 286.7589 deg

Mean anomaly: 89.9687 deg

Mean motion: 14.1350566 rev/day

Mean motion (dot): 0.00001111 rev/day2

B* drag term: 0.00057428773 1/REarth

Two-line elements (TLE)

Creation date: Dec. 13, 2025, 5:47 p.m.

Reference frame: TEME

Reference center: EARTH

Epoch: Dec. 13, 2025, 6:28 a.m. UTC

TLE line 0: 0 ARIANE 1 DEB

TLE line 1: 1 17543U 86019HX 25347.26980541 .00001111 00000-0 57429-3 0 9994

TLE line 2: 2 17543 98.5241 347.6187 0116368 286.7589 89.9687 14.13505660 5707

Live tracking on map

Real-time ground track for satellite ARIANE 1 DEB.

In-orbit conjunctions

A list of the most updated potential collisions computed for object ARIANE 1 DEB.

Target Orbit TCA Probability of collision Miss distance Type
FENGYUN 1C DEB SSO 2024-11-13 06:24:49 0.0004219649 373.0 (m) DEBRIS
COSMOS 724 LEO 2024-07-21 13:40:57 0.0003406958 54.0 (m) PAYLOAD

Associated space launch

SPOT 1 is a French Earth observation satellite. Viking is Sweden's first satellite.

ARIANE 1 DEB was lifted into orbit during the mission ‘Ariane 1 | SPOT 1 & Viking’, on board a Ariane 1 space rocket.

The launch took place on Feb. 22, 1986, 1:44 a.m. from Ariane Launch Area 1 (ELV).

For more information about the launch, click the button.

Launch to space Ariane 1 | SPOT 1 & Viking
Ariane 1 | SPOT 1 & Viking

Agency: N/A

Status: Launch Successful

Launch date: Feb. 22, 1986, 1:44 a.m. UTC

Rocket: Ariane 1

Launch pad: Ariane Launch Area 1 (ELV)

Location: Guiana Space Centre, French Guiana

...

Latest news about this satellite

There are no fresh news available about this satellite. Check back as we update our databases every day.


Newsletter sign-up

Weekly statistics, charts and insights to help you stay on top of the space industry.